Adrian, MI

9:03 AM EDT on April 26, 2017 (GMT -0400)
Lenawee County

Weather History for KADG - June, 2013

Change the Weather History Date:

Wednesday, June 26, 2013

  Actual Average Record
Temperature  
Mean Temperature 72 °F -  
Max Temperature 80 °F 81 °F 96 °F (1952)
Min Temperature 64 °F 56 °F 40 °F (1979)
Cooling Degree Days 6    
Growing Degree Days 22 (Base 50)    
Moisture  
Dew Point 67 °F    
Average Humidity 86    
Maximum Humidity 100    
Minimum Humidity 69    
Precipitation  
Precipitation 1.60 in - - ()
Sea Level Pressure  
Sea Level Pressure 29.84 in    
Wind  
Wind Speed 6 mph (WSW)    
Max Wind Speed 14 mph    
Max Gust Speed 25 mph    
Visibility 8 miles    
Events Fog , Rain    
Averages and records for this station are not official NWS values.
T = Trace of Precipitation, MM = Missing Value Source: NWS Daily Summary

Daily Weather History Graph

Daily Weather History Graph

Search for Another Location

Airport or City:

Trip Planner

Search our weather history database for the weather conditions in past years. The results will help you decide how hot, cold, wet, or windy it might be!

Date:

Astronomy

Jun. 26, 2013 Rise Set
Actual Time 6:02 AM EDT 9:15 PM EDT
Civil Twilight 5:28 AM EDT 9:49 PM EDT
Nautical Twilight 4:44 AM EDT 10:33 PM EDT
Astronomical Twilight 3:51 AM EDT 11:27 PM EDT
Moon 11:33 PM EDT 9:57 AM EDT
Length of Visible Light 16h 21m
Length of Day
15h 12m
Waning Gibbous, 85% of the Moon is Illuminated
Jun 26
Waning Gibbous
Jun 30
Last Quarter
Jul 8
New
Jul 15
First Quarter
Jul 22
Full

Hourly Weather History & Observations

Time (EDT) Temp. Dew Point Humidity Pressure Visibility Wind Dir Wind Speed Gust Speed Precip Events Conditions
12:53 AM 68.0 °F 66.0 °F 93% 29.92 in 4.0 mi NW 3.5 mph - 0.14 in Rain Rain
1:53 AM 66.9 °F 64.0 °F 90% 29.86 in 10.0 mi West 9.2 mph - 0.10 in Rain Light Rain
2:53 AM 66.9 °F 63.0 °F 87% 29.82 in 10.0 mi WSW 6.9 mph - 0.00 in   Clear
3:53 AM 64.9 °F 64.0 °F 97% 29.81 in 10.0 mi West 4.6 mph - N/A   Clear
4:53 AM 66.0 °F 64.0 °F 93% 29.84 in 10.0 mi SSE 3.5 mph - N/A   Clear
5:53 AM 64.9 °F 64.0 °F 97% 29.86 in 10.0 mi ESE 4.6 mph - N/A   Partly Cloudy
6:53 AM 66.0 °F 64.0 °F 93% 29.86 in 10.0 mi SSE 3.5 mph - N/A   Clear
7:53 AM 68.0 °F 64.9 °F 90% 29.88 in 10.0 mi South 5.8 mph - N/A   Partly Cloudy
8:08 AM 68.0 °F 66.2 °F 94% 29.88 in 10.0 mi SSW 8.1 mph - N/A   Mostly Cloudy
8:35 AM 69.8 °F 66.2 °F 88% 29.90 in 8.0 mi SW 4.6 mph - N/A   Overcast
8:53 AM 70.0 °F 66.9 °F 90% 29.89 in 9.0 mi SW 6.9 mph - N/A   Overcast
9:53 AM 71.1 °F 66.9 °F 87% 29.88 in 10.0 mi West 6.9 mph - N/A   Mostly Cloudy
10:15 AM 71.6 °F 66.2 °F 83% 29.89 in 10.0 mi West 5.8 mph - N/A   Scattered Clouds
10:24 AM 71.6 °F 68.0 °F 88% 29.89 in 10.0 mi West 5.8 mph - N/A   Mostly Cloudy
10:36 AM 71.6 °F 68.0 °F 88% 29.89 in 10.0 mi West 8.1 mph - N/A   Mostly Cloudy
10:53 AM 73.0 °F 68.0 °F 84% 29.89 in 10.0 mi WNW 9.2 mph - N/A   Overcast
11:18 AM 73.4 °F 68.0 °F 83% 29.90 in 10.0 mi West 8.1 mph - N/A   Overcast
11:53 AM 73.0 °F 66.9 °F 81% 29.90 in 10.0 mi West 10.4 mph - N/A   Overcast
12:34 PM 73.4 °F 66.2 °F 78% 29.89 in 10.0 mi West 10.4 mph - N/A   Scattered Clouds
12:53 PM 73.9 °F 66.9 °F 79% 29.86 in 10.0 mi Calm Calm - N/A   Partly Cloudy
1:53 PM 77.0 °F 69.1 °F 76% 29.84 in 10.0 mi Calm Calm - N/A   Scattered Clouds
2:53 PM 77.0 °F 69.1 °F 76% 29.84 in 10.0 mi South 5.8 mph - N/A   Partly Cloudy
3:24 PM 78.8 °F 68.0 °F 69% 29.84 in 10.0 mi South 4.6 mph - N/A   Mostly Cloudy
3:31 PM 78.8 °F 68.0 °F 69% 29.84 in 10.0 mi South 5.8 mph - N/A   Mostly Cloudy
3:53 PM 78.1 °F 68.0 °F 71% 29.82 in 10.0 mi South 5.8 mph - N/A   Scattered Clouds
4:53 PM 79.0 °F 68.0 °F 69% 29.81 in 10.0 mi South 5.8 mph - N/A   Mostly Cloudy
5:22 PM 78.8 °F 69.8 °F 74% 29.80 in 10.0 mi South 4.6 mph - N/A   Mostly Cloudy
5:53 PM 78.1 °F 69.1 °F 74% 29.78 in 10.0 mi SE 4.6 mph - N/A   Scattered Clouds
6:53 PM 77.0 °F 70.0 °F 79% 29.76 in 10.0 mi ESE 8.1 mph - N/A   Clear
7:53 PM 77.0 °F 70.0 °F 79% 29.78 in 10.0 mi East 4.6 mph - N/A   Mostly Cloudy
8:07 PM 71.6 °F 66.2 °F 83% 29.81 in 1.8 mi West 13.8 mph 25.3 mph 0.21 in Rain Light Rain
8:10 PM 69.8 °F 66.2 °F 88% 29.82 in 0.8 mi West 13.8 mph 25.3 mph 0.38 in Rain Heavy Rain
8:21 PM 69.8 °F 68.0 °F 94% 29.83 in 0.5 mi West 5.8 mph 17.3 mph 0.86 in Fog , Rain Heavy Rain
8:28 PM 69.8 °F 68.0 °F 94% 29.82 in 1.0 mi West 6.9 mph - 1.01 in Rain Heavy Rain
8:37 PM 69.8 °F 68.0 °F 94% 29.82 in 1.8 mi WNW 3.5 mph - 1.08 in Rain Rain
8:45 PM 69.8 °F 68.0 °F 94% 29.81 in 2.0 mi WNW 3.5 mph - 1.14 in Rain Heavy Rain
8:53 PM 69.1 °F 68.0 °F 96% 29.81 in 2.0 mi WNW 3.5 mph - 1.19 in Rain Heavy Rain
9:16 PM 69.8 °F 68.0 °F 94% 29.80 in 4.0 mi NNE 3.5 mph - 0.13 in Rain Rain
9:53 PM 69.1 °F 68.0 °F 96% 29.78 in 10.0 mi East 4.6 mph - 0.17 in Rain Light Rain
10:53 PM 69.1 °F 69.1 °F 100% 29.76 in 10.0 mi SW 3.5 mph - 0.00 in   Mostly Cloudy
11:00 PM 69.8 °F 68.0 °F 94% 29.76 in 9.0 mi Calm Calm - N/A   Scattered Clouds
11:53 PM 69.1 °F 68.0 °F 96% 29.77 in 7.0 mi Calm Calm - N/A   Clear